Tracking 28790 objects as of 18-Apr-2024
HD Live streaming from Space Station
objects crossing your sky now

SL-14 DEB

Track SL-14 DEB now!
10-day predictions


NORAD ID: 17271
Int'l Code: 1986-101F
Perigee: 879.4 km
Apogee: 916.0 km
Inclination: 82.4 °
Period: 102.8 minutes
Semi major axis: 7268 km
RCS: 0.0119 m2 (small)
Launch date: December 18, 1986
Source: Commonwealth of Independent States (former USSR) (CIS)
Launch site: PLESETSK MISSILE AND SPACE COMPLEX (PKMTR)

Note: This is SATELLITE DEBRIS
Your satellite tracking list
Your tracking list is empty




NASA's NSSDC Master Catalog

Two Line Element Set (TLE):
1 17271U 86101F   24108.87605502  .00001140  00000-0  75101-3 0  9995
2 17271  82.4079 158.1878 0025231 249.1413 234.2128 14.00933190901197
Source of the keplerian elements: AFSPC